This demonstration page uses our WeatherBlox Daily Observations layout. Learn more.

Left ArrowRight Arrow

Hourly Observations for September 25, 2021

Temp ( °F °C ) Dew Point ( °F °C ) Humidity (%) Winds ( mph kmh ) Pressure ( in mb ) Visibility ( mi km ) Precip ( " mm )
12:54 am 00:54 Clear 46 7.8 41 5 83 83 SSW 3 6 30.15 1021 10 16 N/A
1:54 am 01:54 Clear 43 6.1 39 3.9 86 86 N N/A 30.16 1021 10 16 N/A
2:54 am 02:54 Clear 44 6.7 40 4.4 85 85 N N/A 30.15 1021 10 16 N/A
3:54 am 03:54 Clear 41 5 38 3.3 89 89 N N/A 30.15 1021 10 16 N/A
4:54 am 04:54 Clear 45 7.2 41 5 86 86 WSW 3 6 30.16 1021 10 16 N/A
5:54 am 05:54 Clear 40 4.4 37 2.8 89 89 N N/A 30.16 1021 10 16 N/A
6:54 am 06:54 Clear 40 4.4 37 2.8 89 89 S 3 6 30.16 1022 10 16 N/A
7:54 am 07:54 Sunny 44 6.7 40 4.4 85 85 N N/A 30.17 1022 10 16 N/A
8:54 am 08:54 Sunny 50 10 44 6.7 80 80 S 3 6 30.17 1022 10 16 N/A
9:54 am 09:54 Sunny 60 15.6 46 7.8 60 60 SSW 6 9 30.16 1021 10 16 N/A
10:54 am 10:54 Sunny 68 20 44 6.7 42 42 SW 15 24 30.14 1021 10 16 N/A
11:54 am 11:54 Sunny 73 22.8 47 8.3 40 40 SW 15 24 30.12 1020 10 16 N/A
12:54 pm 12:54 Sunny 77 25 46 7.8 33 33 SW 12 19 30.09 1019 10 16 N/A
1:54 pm 13:54 Sunny 78 25.6 45 7.2 31 31 SSW 14 22 30.06 1018 10 16 N/A
2:54 pm 14:54 Sunny 79 26.1 45 7.2 30 30 SW 13 20 30.02 1017 10 16 N/A
3:54 pm 15:54 Sunny 80 26.7 45 7.2 29 29 SW 12 19 29.99 1016 10 16 N/A
4:54 pm 16:54 Sunny 81 27.2 45 7.2 28 28 SSW 17 28 29.96 1015 10 16 N/A
5:54 pm 17:54 Sunny 80 26.7 46 7.8 30 30 SSW 14 22 29.95 1014 10 16 N/A
6:54 pm 18:54 Sunny 76 24.4 46 7.8 35 35 SSW 10 17 29.94 1014 10 16 N/A
7:54 pm 19:54 Clear 65 18.3 46 7.8 51 51 S 8 13 29.94 1014 10 16 N/A
8:54 pm 20:54 Clear 60 15.6 47 8.3 62 62 S 9 15 29.95 1014 10 16 N/A
9:54 pm 21:54 Clear 58 14.4 46 7.8 65 65 S 9 15 29.94 1014 10 16 N/A
10:54 pm 22:54 Clear 56 13.3 45 7.2 67 67 S 9 15 29.93 1014 10 16 N/A
11:54 pm 23:54 Clear 62 16.7 45 7.2 54 54 SSW 9 15 29.91 1013 10 16 N/A

Powered by AerisWeather